This is the latest recevied weather packets stored in our database for station/object W5ADC. If no packets are shown the sender has not sent any weather packets the latest 10 day(s).
| Time | Temp. | Humidity | Pressure | Rain* | Wind** | Luminosity | Snow |
|---|---|---|---|---|---|---|---|
| 1777683384 | 16.67° C | 66% | 1012.8 hPa | 0 mm | - | 4 W/m² | - |
| 1777683082 | 16.67° C | 66% | 1012.9 hPa | 0 mm | - | 6 W/m² | - |
| 1777682777 | 16.67° C | 65% | 1012.9 hPa | 0 mm | - | 7 W/m² | - |
| 1777682474 | 17.22° C | 65% | 1012.9 hPa | 0 mm | - | 8 W/m² | - |
| 1777682172 | 17.22° C | 65% | 1012.7 hPa | 0 mm | - | 8 W/m² | - |
| 1777681869 | 17.22° C | 65% | 1012.8 hPa | 0 mm | - | 11 W/m² | - |
| 1777681565 | 17.22° C | 64% | 1012.6 hPa | 0 mm | - | 20 W/m² | - |
| 1777681262 | 17.22° C | 64% | 1012.6 hPa | 0 mm | - | 30 W/m² | - |
| 1777680960 | 17.22° C | 64% | 1012.4 hPa | 0 mm | - | 37 W/m² | - |
| 1777680657 | 17.22° C | 64% | 1012.3 hPa | 0 mm | - | 34 W/m² | - |
| 1777680355 | 17.22° C | 64% | 1012.4 hPa | 0 mm | - | 30 W/m² | - |
| 1777680052 | 17.22° C | 64% | 1012.2 hPa | 0 mm | - | 34 W/m² | - |
| 1777679748 | 17.22° C | 63% | 1012.1 hPa | 0 mm | - | 32 W/m² | - |
| 1777679444 | 17.22° C | 63% | 1012.1 hPa | 0 mm | - | 39 W/m² | - |
| 1777679140 | 17.22° C | 63% | 1012.1 hPa | 0 mm | - | 46 W/m² | - |
| 1777678838 | 17.78° C | 62% | 1012 hPa | 0 mm | - | 55 W/m² | - |
| 1777678536 | 17.78° C | 62% | 1012.1 hPa | 0 mm | - | 59 W/m² | - |
| 1777678232 | 17.78° C | 62% | 1012.1 hPa | 0 mm | - | 76 W/m² | - |
| 1777677928 | 17.78° C | 62% | 1011.8 hPa | 0 mm | - | 94 W/m² | - |
| 1777677626 | 17.78° C | 62% | 1011.6 hPa | 0 mm | - | 82 W/m² | - |
| 1777677324 | 17.78° C | 62% | 1011.6 hPa | 0 mm | - | 96 W/m² | - |
| 1777677022 | 17.78° C | 61% | 1011.7 hPa | 0 mm | - | 109 W/m² | - |
| 1777676720 | 17.78° C | 61% | 1011.4 hPa | 0 mm | - | 100 W/m² | - |
| 1777676418 | 17.78° C | 61% | 1011.6 hPa | 0 mm | - | 86 W/m² | - |
| 1777676115 | 17.78° C | 61% | 1011.7 hPa | 0 mm | - | 83 W/m² | - |
* Rain latest hour (hover to see other rain measurements)
** Current wind speed in m/s (hover to see current wind gust speed)